Other Public Products
Issued by NWS Grand Forks, ND

Home | Current Version | Previous Version | Text Only | Print | Product List | Glossary On
Versions: 1 2 3 4 5 6 7 8 9 10 11 12 13 14 15 16 17 18 19 20 21 22 23 24 25 26 27 28 29 30 31 32 33 34 35 36 37 38 39 40 41 42 43 44 45 46 47 48 49 50
000
FPUS83 KFGF 280510
OPUFGF
PRAIRIE TO PINES WEATHER ROUNDUP
NATIONAL WEATHER SERVICE EASTERN NORTH DAKOTA/GRAND FORKS ND
1100 PM CST SAT DEC 27 2014

 **SATELLITE DATA USED TO AUGMENT SKY COVER AT AUTOMATED STATIONS**
 *****  WEATHER ACROSS EASTERN NORTH DAKOTA  *****

CITY           SKY/WX    TMP DP  RH WIND       PRES   REMARKS
GRAND FORKS    LGT SNOW  10   6  84 N15       30.11R FOG     WCI  -7
GRAND FORKS AF CLOUDY    10   9  92 N16       30.11R WCI  -7
GRAND CITY NWS   N/A     10 N/A N/A VRB6        N/A  WCI   1
BUXTON         NOT AVBL
DEVILS LAKE    CLOUDY    10   3  72 NE12      30.06R WCI  -4
FARGO          CLOUDY    24  19  81 W5        30.04S WCI  18
WAHPETON ARPT  CLOUDY    23  19  86 W8        30.05S WCI  14
$$

 *****  WEATHER ACROSS CENTRAL AND WESTERN NORTH DAKOTA  *****

CITY           SKY/WX    TMP DP  RH WIND       PRES   REMARKS
JAMESTOWN      CLOUDY    21  15  78 NW13      30.02S WCI   9
BISMARCK       CLOUDY    14  12  92 CALM      30.05R
MINOT          CLOUDY    11   6  81 N12       30.06S WCI  -3
MINOT AFB      MIX PCPN  10   8  92 NE8       30.07R WCI  -2
GARRISON         N/A     18  14  84 CALM      30.02S
WILLISTON      LGT SNOW  19  14  81 NE8       30.01S WCI   9
DICKINSON      CLOUDY    21  15  78 S5        29.95S WCI  15
HETTINGER      CLOUDY    19  14  81 CALM      29.98F
$$

 *****  OTHER OBSERVATIONS NORTHEAST NORTH DAKOTA  *****

CITY           SKY/WX    TMP DP  RH WIND       PRES   REMARKS
WALHALLA         N/A      3   0  85 N9        30.15S WCI -11
LANGDON        CLOUDY     1  -2  85 NE14      30.06S WCI -17
CAVALIER       MOCLDY     1   0  92 N10       30.15S WCI -14
GRAFTON        NOT AVBL
CANDO          CLOUDY     5   1  85 NE8       30.09R WCI  -8
FORT TOTTEN    NOT AVBL
ROLLA          CLOUDY     1   0  92 N8        30.07R WCI -12
RUGBY          FAIR       9   5  85 N7        30.07R WCI  -3
 ***** THE ABOVE OBSERVATIONS ARE NON NWS ARE NOT QUALITY
        CONTROLLED AND MAY MIS-REPORT RAIN FOR SNOW...
$$

 *****  OTHER OBSERVATIONS SOUTHEAST NORTH DAKOTA *****

CITY           SKY/WX    TMP DP  RH WIND       PRES   REMARKS
COOPERSTOWN    NOT AVBL
VALLEY CITY    CLOUDY    23  23 100 NW9       30.03R WCI  13
OAKES            N/A     14  14 100 W7        30.04S WCI   4
GWINNER        CLEAR     18  16  93 SW9       30.05S WCI   6
BUFFALO        NOT AVBL
WYNDMERE         N/A     18  16  93 W9          N/A  WCI   6
 ***** THE ABOVE OBSERVATIONS ARE NON NWS ARE NOT QUALITY
       CONTROLLED AND MAY MIS-REPORT RAIN FOR SNOW...
$$

  *****  WEATHER ACROSS NORTHERN MINNESOTA  *****

CITY           SKY/WX    TMP DP  RH WIND       PRES   REMARKS
FLAG ISLAND    CLOUDY     0  -6  78 NW15      30.06R WCI -20
WARROAD        PTCLDY     1  -6  71 NW7       30.08R WCI -11
ROSEAU         PTCLDY     1  -4  78 N9        30.10R WCI -14
HALLOCK        CLOUDY     7   0  72 N10       30.13R WCI  -8
THF RVR FALLS  CLOUDY    12   9  85 N12       30.06R WCI  -2
HALSTAD          N/A     20  18  91 N2          N/A
FOSSTON        FLURRIES  14  10  85 N7        30.03S WCI   4
BAUDETTE       CLOUDY     4  -1  80 NW14      30.04R WCI -14
WASKISH        FLURRIES  14  10  85 NW6       30.02S WCI   5
CROOKSTON      FLURRIES  12   9  85 N14       30.09R WCI  -3
$$
  *****  WEATHER ACROSS CENTRAL AND WEST MINNESOTA  *****

CITY           SKY/WX    TMP DP  RH WIND       PRES   REMARKS
BEMIDJI        LGT SNOW  16  13  89 NW6       30.00S WCI   7
PARK RAPIDS    CLOUDY    20  17  88 W3        29.99S
WADENA         PTCLDY    18  16  93 W7        30.00S WCI   8
DETROIT LAKES  CLOUDY    23  21  93 NW5       30.01S WCI  17
MOORHEAD       CLOUDY    23  23 100 W3        30.04S
FERGUS FALLS   CLOUDY    21  16  79 SW3       30.07S
ELBOW LAKE     CLOUDY    20  18  90 SW6       30.04R WCI  12
MORRIS MN      MOCLDY    19  16  86 SW6       30.04F WCI  11
STAPLES        MOCLDY    19  16  86 SW5       30.01S WCI  13
WHEATON        CLEAR     18  16  93 SW6       30.08R WCI   9
$$
  *****  WEATHER ELSEWHERE ACROSS MINNESOTA  *****

CITY           SKY/WX    TMP DP  RH WIND       PRES   REMARKS
DULUTH         MOCLDY    17   6  62 W7        29.97S WCI   8
INTRNTL FALLS  CLOUDY    11   5  77 NW10      30.00R WCI  -3
ELY            FLURRIES  12   9  85 W7        29.95S WCI   2
CLOQUET        MOCLDY    18  10  73 W8        29.99S WCI   7
BRAINERD       CLOUDY    20  15  81 SW5       30.02F WCI  13
HIBBING        LGT SNOW  18  11  74 CALM      29.98S
ALEXANDRIA     MOCLDY    18  15  88 SW8       30.03S WCI   8
SAINT CLOUD    CLOUDY    19  12  74 SW7       30.07F WCI  10
MINNEAPOLIS    PTCLDY    11   6  81 SW6       30.12S WCI   1
$$

  *****  WEATHER ACROSS SOUTH DAKOTA  *****

CITY           SKY/WX    TMP DP  RH WIND       PRES   REMARKS
SIOUX FALLS    PTCLDY     9   6  88 S3        30.12S
BROOKINGS      NOT AVBL
WATERTOWN      CLEAR      5   2  87 S6        30.05S WCI  -6
HURON          CLEAR     12   8  84 S6        30.08S WCI   3
SISSETON         N/A     21  16  81 W16       30.04R WCI   7
ABERDEEN       PTCLDY    14  11  87 S5        30.07R WCI   6
MITCHELL       PTCLDY     8   5  87 S3        30.11S
PIERRE         CLEAR     16  12  84 SW8       30.06S WCI   5
MOBRIDGE       CLOUDY    17  12  80 N3        30.01F
RAPID CITY     CLEAR     13   5  70 W6        30.02S WCI   4
$$

  *****  SOME WEATHER IN NEARBY STATES *****

CITY           SKY/WX    TMP DP  RH WIND       PRES   REMARKS
GLASGOW MT     CLOUDY    25  18  74 NW3       29.92F
GREAT FALLS MT CLOUDY    29  20  69 S13       29.81F WCI  19
CHEYENNE WY    PTCLDY    19   1  45 W20       29.99F WCI   3
SCOTTSBLUFF NE MOCLDY     2  -1  88 N7        30.09S WCI -11
OMAHA NE       CLEAR     19  15  84 S3        30.24F
DES MOINES IA  CLEAR     20  16  84 W6        30.23S WCI  12
DAVENPORT IA   CLEAR     23  18  81 W13       30.19F WCI  11
CHICAGO IL     CLOUDY    31  24  75 W10       30.10F WCI  22
EAU CLAIRE WI  CLEAR     12   5  73 SW6       30.11R WCI   3
LA CROSSE WI   CLEAR     17   9  70 SW3       30.16F
$$

  *****  SOME NATIONAL WEATHER *****

CITY           SKY/WX    TMP DP  RH WIND       PRES   REMARKS
LA GUARDIA NY  MOCLDY    49  34  56 SW5       30.07F
RALEIGH NC     CLOUDY    51  38  60 CALM      30.18F
ATLANTA GA     CLOUDY    54  51  90 SE5       30.15F
NEW ORLEANS LA MOCLDY    69  67  93 S7        30.08F FOG
OKLAHOMA CITY  PTCLDY    25  17  72 NW6       30.30S WCI  18
ALBUQUERQUE NM CLEAR     26   8  46 N10       30.29R WCI  16
SALT LAKE CITY MOCLDY    24  15  68 S7        30.27F WCI  16
LOS ANGELES CA PTCLDY    52  27  38 N6        30.33S
BOISE ID       LGT SNOW  30  27  88 SE8       30.16F FOG     WCI  22
SEATTLE WA     MOCLDY    45  38  76 SW12      30.05S
$$

*** WEATHER ACROSS MANITOBA...SASKATCHEWAN AND ONTARIO ***
                ***ONTARIO***

CITY           SKY/WX    TMP DP  RH WIND       PRES   REMARKS
GERALDTON      LGT SNOW  10   7  85 W12G18    29.84  WCI  -4
THUNDER BAY    CLOUDY    12   7  79 SW6       29.96S WCI   3
SIOUX LOOKOUT  NOT AVBL
TORONTO        LGT RAIN  43  39  87 W20G28    29.85F
BIG TROUT LK   FLURRIES -11 -15  84 NW10      29.90S WCI -30
PICKLE LAKE    NOT AVBL
DRYDEN         FLURRIES   3   0  85 W9        29.95R WCI -11
KENORA         FLURRIES  -4  -8  84 NW10      30.02R WCI -21
$$
                *** MANITOBA***

CITY           SKY/WX    TMP DP  RH WIND       PRES   REMARKS
BRANDON        CLOUDY    -2  -8  78 E6        30.15R WCI -14
DAUPHIN        CLEAR    -20 -26  76 SW6       30.20R WCI -36
ISLAND LAKE    PTCLDY   -22 -27  76 W9        30.04F WCI -42
PILOT MOUND      N/A      0  -4  85 NE8         N/A  WCI -15
THE PAS        PTCLDY   -18 -24  76 W10       30.20R WCI -39
THOMPSON       PTCLDY   -20 -26  76 NW5       30.11R WCI -33
WINNIPEG       CLEAR     -9 -17  70 NW13      30.18R WCI -30
CHURCHILL      CRYSTALS -15 -20  76 N20G26    30.09S BLWGSNOWWCI -41
GILLAM         LGT SNOW -15 -20  76 NW12      30.03S VSB 3/4 WCI -36
$$
                ***SASKATCHEWAN***

CITY           SKY/WX    TMP DP  RH WIND       PRES   REMARKS
ESTEVAN        NOT AVBL
KINDERSLEY     CLOUDY     9   5  85 E20       29.98R WCI -11
LLOYDMINSTER   FLURRIES   3   0  85 E12       30.06R WCI -13
PRINCE ALBERT  CRYSTALS -24 -29  76 W3        30.21R VSB 1
REGINA         NOT AVBL
YORKTON        CLEAR    -18 -24  76 W7        30.14R WCI -35
N. BATTLEFORD  CLOUDY    -4  -9  77 E12       30.15R WCI -22


USA.gov is the U.S. government's official web portal to all federal, state and local government web resources and services.